When you browse on this site, cookies collect data to enhance your experience and personalize the content and advertising you see.
Visit our Privacy Policy to learn more. By continuing to use the site, you agree to this use of cookies and data.

Hourly Weather Yulara

Today, 23 September, Wednesday

Time Temperature Precipitation Wind Pressure Humidity
00:00 +16°C° 0 mm 6 mps 721 mmHg 28%
01:00 +16°C° 0 mm 5 mps 721 mmHg 31%
02:00 +15°C° 0 mm 5 mps 721 mmHg 35%
03:00 +14°C° 0 mm 5 mps 721 mmHg 38%
04:00 +14°C° 0 mm 5 mps 721 mmHg 42%
05:00 +13°C° 0 mm 5 mps 722 mmHg 46%
06:00 +13°C° 0 mm 5 mps 722 mmHg 50%
07:00 +15°C° 0 mm 6 mps 722 mmHg 44%
08:00 +17°C° 0 mm 7 mps 723 mmHg 39%
09:00 +20°C° 0 mm 7 mps 724 mmHg 33%
10:00 +22°C° 0 mm 7 mps 723 mmHg 29%
11:00 +23°C° 0 mm 6 mps 723 mmHg 26%
12:00 +26°C° 0 mm 6 mps 722 mmHg 22%
13:00 +27°C° 0 mm 5 mps 722 mmHg 20%
14:00 +27°C° 0 mm 5 mps 721 mmHg 18%
15:00 +28°C° 0 mm 4 mps 721 mmHg 16%
16:00 +27°C° 0 mm 4 mps 721 mmHg 17%
17:00 +26°C° 0 mm 4 mps 721 mmHg 18%
18:00 +25°C° 0 mm 3 mps 721 mmHg 19%
19:00 +23°C° 0 mm 4 mps 721 mmHg 21%
20:00 +21°C° 0 mm 5 mps 721 mmHg 22%
21:00 +20°C° 0 mm 6 mps 722 mmHg 24%
22:00 +19°C° 0 mm 6 mps 721 mmHg 25%
23:00 +17°C° 0 mm 6 mps 721 mmHg 26%

Tomorrow, 24 September, Thursday

Time Temperature Precipitation Wind Pressure Humidity
00:00 +16°C° 0 mm 6 mps 721 mmHg 27%
01:00 +16°C° 0 mm 5 mps 721 mmHg 29%
02:00 +15°C° 0 mm 4 mps 721 mmHg 32%
03:00 +14°C° 0 mm 4 mps 720 mmHg 34%
04:00 +13°C° 0 mm 4 mps 720 mmHg 35%
05:00 +13°C° 0 mm 4 mps 721 mmHg 37%
06:00 +13°C° 0 mm 4 mps 721 mmHg 38%
07:00 +15°C° 0 mm 5 mps 721 mmHg 34%
08:00 +17°C° 0 mm 5 mps 722 mmHg 29%
09:00 +21°C° 0 mm 6 mps 722 mmHg 25%
10:00 +23°C° 0 mm 5 mps 722 mmHg 22%
11:00 +25°C° 0 mm 4 mps 721 mmHg 20%
12:00 +27°C° 0 mm 3 mps 721 mmHg 18%
13:00 +28°C° 0 mm 2 mps 720 mmHg 17%
14:00 +28°C° 0 mm 2 mps 720 mmHg 16%
15:00 +29°C° 0 mm 2 mps 719 mmHg 14%
16:00 +28°C° 0 mm 2 mps 719 mmHg 16%
17:00 +27°C° 0 mm 2 mps 719 mmHg 17%
18:00 +26°C° 0 mm 2 mps 718 mmHg 18%
19:00 +24°C° 0 mm 3 mps 719 mmHg 19%
20:00 +22°C° 0 mm 4 mps 719 mmHg 21%
21:00 +21°C° 0 mm 5 mps 719 mmHg 22%
22:00 +20°C° 0 mm 5 mps 719 mmHg 24%
23:00 +19°C° 0 mm 6 mps 719 mmHg 26%

Day after tomorrow, 25 September, Friday

Time Temperature Precipitation Wind Pressure Humidity
00:00 +17°C° 0 mm 6 mps 719 mmHg 28%
01:00 +17°C° 0 mm 5 mps 719 mmHg 30%
02:00 +16°C° 0 mm 5 mps 718 mmHg 32%
03:00 +17°C° 0 mm 4 mps 718 mmHg 34%
04:00 +15°C° 0 mm 4 mps 719 mmHg 34%
05:00 +15°C° 0 mm 4 mps 719 mmHg 34%
06:00 +15°C° 0 mm 4 mps 719 mmHg 35%
07:00 +17°C° 0 mm 4 mps 720 mmHg 32%
08:00 +18°C° 0 mm 4 mps 720 mmHg 30%
09:00 +20°C° 0 mm 5 mps 720 mmHg 27%
10:00 +21°C° 0 mm 4 mps 720 mmHg 25%
11:00 +22°C° 0 mm 4 mps 720 mmHg 23%
12:00 +25°C° 0 mm 4 mps 719 mmHg 21%
13:00 +25°C° 0 mm 4 mps 719 mmHg 20%
14:00 +26°C° 0 mm 3 mps 718 mmHg 19%
15:00 +27°C° 0 mm 3 mps 717 mmHg 19%
16:00 +26°C° 0 mm 4 mps 717 mmHg 21%
17:00 +25°C° 0 mm 4 mps 717 mmHg 23%
18:00 +23°C° 0 mm 4 mps 717 mmHg 25%
19:00 +22°C° 0 mm 4 mps 718 mmHg 28%
20:00 +20°C° 0 mm 3 mps 718 mmHg 32%
21:00 +19°C° 0 mm 3 mps 719 mmHg 35%
22:00 +18°C° 0 mm 4 mps 719 mmHg 35%
23:00 +18°C° 0 mm 4 mps 719 mmHg 36%

26 September, Saturday

Time Temperature Precipitation Wind Pressure Humidity
00:00 +16°C° 0 mm 5 mps 719 mmHg 36%
01:00 +15°C° 0 mm 5 mps 719 mmHg 36%
02:00 +15°C° 0 mm 5 mps 718 mmHg 37%
03:00 +14°C° 0 mm 5 mps 718 mmHg 38%
04:00 +13°C° 0 mm 5 mps 718 mmHg 38%
05:00 +13°C° 0 mm 5 mps 719 mmHg 39%
06:00 +12°C° 0 mm 5 mps 719 mmHg 40%
07:00 +14°C° 0 mm 6 mps 719 mmHg 36%
08:00 +16°C° 0 mm 7 mps 720 mmHg 32%
09:00 +20°C° 0 mm 8 mps 720 mmHg 28%
10:00 +22°C° 0 mm 8 mps 720 mmHg 25%
11:00 +26°C° 0 mm 7 mps 719 mmHg 21%
12:00 +29°C° 0 mm 6 mps 719 mmHg 18%
13:00 +30°C° 0 mm 5 mps 718 mmHg 17%
14:00 +32°C° 0 mm 4 mps 718 mmHg 15%
15:00 +33°C° 0 mm 3 mps 717 mmHg 14%
16:00 +31°C° 0 mm 3 mps 717 mmHg 15%
17:00 +29°C° 0 mm 3 mps 717 mmHg 17%
18:00 +28°C° 0 mm 2 mps 717 mmHg 18%
19:00 +27°C° 0 mm 3 mps 717 mmHg 20%
20:00 +25°C° 0 mm 5 mps 718 mmHg 22%
21:00 +23°C° 0 mm 6 mps 718 mmHg 23%
22:00 +22°C° 0 mm 5 mps 718 mmHg 27%
23:00 +21°C° 0 mm 5 mps 718 mmHg 31%

27 September, Sunday

Time Temperature Precipitation Wind Pressure Humidity
00:00 +20°C° 0 mm 5 mps 718 mmHg 34%
01:00 +19°C° 0 mm 5 mps 718 mmHg 38%
02:00 +19°C° 0 mm 4 mps 717 mmHg 42%
03:00 +18°C° 0 mm 4 mps 717 mmHg 47%
04:00 +18°C° 0 mm 4 mps 718 mmHg 48%
05:00 +17°C° 0 mm 4 mps 718 mmHg 49%
06:00 +17°C° 0 mm 4 mps 718 mmHg 51%
07:00 +20°C° 0 mm 5 mps 719 mmHg 43%
08:00 +23°C° 0 mm 6 mps 719 mmHg 36%
09:00 +27°C° 0 mm 6 mps 720 mmHg 29%
10:00 +29°C° 0 mm 7 mps 720 mmHg 26%
11:00 +32°C° 0 mm 7 mps 719 mmHg 23%
12:00 +34°C° 0 mm 7 mps 719 mmHg 21%
13:00 +34°C° 0 mm 7 mps 718 mmHg 21%
14:00 +34°C° 0 mm 6 mps 718 mmHg 21%
15:00 +34°C° 0 mm 6 mps 717 mmHg 22%
16:00 +32°C° 0.1 mm 7 mps 717 mmHg 29%
17:00 +28°C° 0.1 mm 7 mps 717 mmHg 36%
18:00 +26°C° 0.1 mm 8 mps 717 mmHg 43%
19:00 +26°C° 0.1 mm 7 mps 718 mmHg 46%
20:00 +24°C° 0.1 mm 6 mps 719 mmHg 48%
21:00 +23°C° 0.1 mm 5 mps 719 mmHg 51%
22:00 +23°C° 0 mm 5 mps 719 mmHg 53%
23:00 +22°C° 0 mm 5 mps 719 mmHg 56%

28 September, Monday

Time Temperature Precipitation Wind Pressure Humidity
00:00 +21°C° 0 mm 5 mps 719 mmHg 59%
01:00 +21°C° 0 mm 5 mps 718 mmHg 61%
02:00 +21°C° 0 mm 6 mps 718 mmHg 63%
03:00 +21°C° 0 mm 6 mps 718 mmHg 64%
04:00 +21°C° 0 mm 6 mps 718 mmHg 62%
05:00 +20°C° 0 mm 7 mps 718 mmHg 60%
06:00 +20°C° 0 mm 7 mps 718 mmHg 58%
07:00 +23°C° 0 mm 7 mps 718 mmHg 47%
08:00 +26°C° 0 mm 7 mps 719 mmHg 37%
09:00 +29°C° 0 mm 7 mps 719 mmHg 27%
10:00 +30°C° 0 mm 7 mps 719 mmHg 25%
11:00 +30°C° 0 mm 6 mps 718 mmHg 24%
12:00 +32°C° 0 mm 6 mps 718 mmHg 22%
13:00 +32°C° 0 mm 6 mps 717 mmHg 25%
14:00 +30°C° 0 mm 6 mps 717 mmHg 28%
15:00 +29°C° 0 mm 6 mps 716 mmHg 31%
16:00 +29°C° 0 mm 5 mps 716 mmHg 29%
17:00 +30°C° 0 mm 4 mps 716 mmHg 28%
18:00 +30°C° 0 mm 3 mps 716 mmHg 26%
19:00 +27°C° 0.2 mm 5 mps 716 mmHg 39%
20:00 +24°C° 0.2 mm 7 mps 717 mmHg 52%
21:00 +21°C° 0.2 mm 9 mps 717 mmHg 65%
22:00 +22°C° 0.3 mm 8 mps 717 mmHg 62%
23:00 +22°C° 0.3 mm 8 mps 716 mmHg 59%
Show more